When you browse on this site, cookies collect data to enhance your experience and personalize the content and advertising you see.
Visit our Privacy Policy to learn more. By continuing to use the site, you agree to this use of cookies and data.

Hourly Weather Santa Cruz de Tenerife

Today, 15 July, Wednesday

Time Temperature Precipitation Wind Pressure Humidity
00:00 +28°C° 0 mm 6 mps 751 mmHg 35%
01:00 +27°C° 0 mm 6 mps 750 mmHg 36%
02:00 +27°C° 0 mm 6 mps 750 mmHg 37%
03:00 +26°C° 0 mm 6 mps 750 mmHg 37%
04:00 +26°C° 0 mm 6 mps 750 mmHg 38%
05:00 +26°C° 0 mm 6 mps 750 mmHg 38%
06:00 +28°C° 0 mm 6 mps 750 mmHg 34%
07:00 +30°C° 0 mm 6 mps 750 mmHg 30%
08:00 +34°C° 0 mm 6 mps 750 mmHg 26%
09:00 +34°C° 0 mm 6 mps 750 mmHg 25%
10:00 +35°C° 0 mm 7 mps 751 mmHg 25%
11:00 +36°C° 0 mm 7 mps 751 mmHg 24%
12:00 +36°C° 0 mm 7 mps 750 mmHg 27%
13:00 +36°C° 0 mm 7 mps 750 mmHg 30%
14:00 +36°C° 0 mm 7 mps 750 mmHg 33%
15:00 +36°C° 0 mm 7 mps 750 mmHg 36%
16:00 +35°C° 0 mm 7 mps 749 mmHg 40%
17:00 +34°C° 0 mm 7 mps 749 mmHg 44%
18:00 +33°C° 0 mm 7 mps 749 mmHg 46%
19:00 +32°C° 0 mm 7 mps 750 mmHg 47%
20:00 +30°C° 0 mm 6 mps 750 mmHg 49%
21:00 +29°C° 0 mm 6 mps 750 mmHg 46%
22:00 +29°C° 0 mm 6 mps 750 mmHg 43%
23:00 +29°C° 0 mm 6 mps 750 mmHg 40%

Tomorrow, 16 July, Thursday

Time Temperature Precipitation Wind Pressure Humidity
00:00 +28°C° 0 mm 6 mps 750 mmHg 39%
01:00 +28°C° 0 mm 6 mps 750 mmHg 39%
02:00 +28°C° 0 mm 5 mps 749 mmHg 38%
03:00 +28°C° 0 mm 5 mps 749 mmHg 38%
04:00 +28°C° 0 mm 5 mps 749 mmHg 38%
05:00 +28°C° 0 mm 5 mps 749 mmHg 38%
06:00 +30°C° 0 mm 5 mps 750 mmHg 33%
07:00 +34°C° 0 mm 6 mps 750 mmHg 28%
08:00 +36°C° 0 mm 6 mps 751 mmHg 24%
09:00 +38°C° 0 mm 6 mps 751 mmHg 23%
10:00 +39°C° 0 mm 6 mps 751 mmHg 23%
11:00 +40°C° 0 mm 7 mps 751 mmHg 23%
12:00 +40°C° 0 mm 6 mps 751 mmHg 23%
13:00 +41°C° 0 mm 6 mps 751 mmHg 22%
14:00 +41°C° 0 mm 6 mps 751 mmHg 22%
15:00 +40°C° 0 mm 6 mps 751 mmHg 23%
16:00 +39°C° 0 mm 6 mps 751 mmHg 24%
17:00 +39°C° 0 mm 6 mps 750 mmHg 25%
18:00 +36°C° 0 mm 5 mps 750 mmHg 27%
19:00 +35°C° 0 mm 5 mps 751 mmHg 29%
20:00 +33°C° 0 mm 5 mps 751 mmHg 31%
21:00 +33°C° 0 mm 5 mps 751 mmHg 29%
22:00 +33°C° 0 mm 5 mps 751 mmHg 27%
23:00 +33°C° 0 mm 5 mps 751 mmHg 26%

Day after tomorrow, 17 July, Friday

Time Temperature Precipitation Wind Pressure Humidity
00:00 +33°C° 0 mm 4 mps 751 mmHg 26%
01:00 +32°C° 0 mm 4 mps 751 mmHg 27%
02:00 +32°C° 0 mm 4 mps 750 mmHg 27%
03:00 +32°C° 0 mm 4 mps 750 mmHg 27%
04:00 +32°C° 0 mm 4 mps 750 mmHg 27%
05:00 +32°C° 0 mm 4 mps 750 mmHg 27%
06:00 +33°C° 0 mm 4 mps 751 mmHg 24%
07:00 +35°C° 0 mm 4 mps 751 mmHg 22%
08:00 +37°C° 0 mm 4 mps 751 mmHg 19%
09:00 +38°C° 0 mm 4 mps 751 mmHg 19%
10:00 +40°C° 0 mm 5 mps 751 mmHg 18%
11:00 +41°C° 0 mm 5 mps 751 mmHg 17%
12:00 +42°C° 0 mm 5 mps 751 mmHg 17%
13:00 +42°C° 0 mm 5 mps 751 mmHg 18%
14:00 +44°C° 0 mm 6 mps 751 mmHg 18%
15:00 +42°C° 0 mm 6 mps 751 mmHg 19%
16:00 +42°C° 0 mm 6 mps 750 mmHg 19%
17:00 +41°C° 0 mm 6 mps 750 mmHg 20%
18:00 +39°C° 0 mm 5 mps 750 mmHg 21%
19:00 +37°C° 0 mm 5 mps 751 mmHg 22%
20:00 +35°C° 0 mm 5 mps 751 mmHg 23%
21:00 +35°C° 0 mm 5 mps 751 mmHg 22%
22:00 +34°C° 0 mm 5 mps 752 mmHg 21%
23:00 +34°C° 0 mm 5 mps 752 mmHg 21%

18 July, Saturday

Time Temperature Precipitation Wind Pressure Humidity
00:00 +34°C° 0 mm 5 mps 751 mmHg 21%
01:00 +33°C° 0 mm 4 mps 751 mmHg 22%
02:00 +33°C° 0 mm 4 mps 751 mmHg 23%
03:00 +33°C° 0 mm 4 mps 751 mmHg 23%
04:00 +33°C° 0 mm 4 mps 750 mmHg 23%
05:00 +33°C° 0 mm 4 mps 750 mmHg 24%
06:00 +35°C° 0 mm 4 mps 751 mmHg 21%
07:00 +39°C° 0 mm 5 mps 751 mmHg 19%
08:00 +41°C° 0 mm 5 mps 751 mmHg 17%
09:00 +42°C° 0 mm 5 mps 751 mmHg 17%
10:00 +42°C° 0 mm 5 mps 751 mmHg 17%
11:00 +43°C° 0 mm 5 mps 752 mmHg 16%
12:00 +43°C° 0 mm 5 mps 752 mmHg 17%
13:00 +44°C° 0 mm 6 mps 751 mmHg 17%
14:00 +45°C° 0 mm 6 mps 751 mmHg 17%
15:00 +44°C° 0 mm 6 mps 751 mmHg 18%
16:00 +42°C° 0 mm 6 mps 751 mmHg 19%
17:00 +42°C° 0 mm 5 mps 751 mmHg 19%
18:00 +40°C° 0 mm 5 mps 751 mmHg 21%
19:00 +39°C° 0 mm 5 mps 751 mmHg 22%
20:00 +36°C° 0 mm 5 mps 752 mmHg 23%
21:00 +36°C° 0 mm 5 mps 752 mmHg 23%
22:00 +36°C° 0 mm 4 mps 752 mmHg 23%
23:00 +36°C° 0 mm 4 mps 752 mmHg 24%

19 July, Sunday

Time Temperature Precipitation Wind Pressure Humidity
00:00 +35°C° 0 mm 4 mps 752 mmHg 25%
01:00 +34°C° 0 mm 4 mps 751 mmHg 26%
02:00 +34°C° 0 mm 4 mps 751 mmHg 27%
03:00 +33°C° 0 mm 4 mps 751 mmHg 28%
04:00 +33°C° 0 mm 4 mps 751 mmHg 29%
05:00 +33°C° 0 mm 4 mps 751 mmHg 29%
06:00 +34°C° 0 mm 4 mps 752 mmHg 27%
07:00 +36°C° 0 mm 4 mps 752 mmHg 24%
08:00 +38°C° 0 mm 4 mps 752 mmHg 22%
09:00 +40°C° 0 mm 5 mps 752 mmHg 21%
10:00 +41°C° 0 mm 5 mps 753 mmHg 20%
11:00 +42°C° 0 mm 5 mps 753 mmHg 19%
12:00 +42°C° 0 mm 5 mps 753 mmHg 19%
13:00 +42°C° 0 mm 6 mps 753 mmHg 19%
14:00 +42°C° 0 mm 6 mps 752 mmHg 19%
15:00 +42°C° 0 mm 6 mps 752 mmHg 19%
16:00 +41°C° 0 mm 6 mps 752 mmHg 20%
17:00 +40°C° 0 mm 6 mps 752 mmHg 20%
18:00 +39°C° 0 mm 6 mps 752 mmHg 23%
19:00 +36°C° 0 mm 6 mps 753 mmHg 26%
20:00 +34°C° 0 mm 5 mps 753 mmHg 28%
21:00 +34°C° 0 mm 5 mps 753 mmHg 29%
22:00 +34°C° 0 mm 6 mps 753 mmHg 30%
23:00 +33°C° 0 mm 6 mps 753 mmHg 31%

20 July, Monday

Time Temperature Precipitation Wind Pressure Humidity
00:00 +33°C° 0 mm 6 mps 752 mmHg 32%
01:00 +33°C° 0 mm 6 mps 752 mmHg 33%
02:00 +32°C° 0 mm 6 mps 752 mmHg 34%
03:00 +32°C° 0.1 mm 7 mps 752 mmHg 34%
04:00 +32°C° 0.1 mm 7 mps 752 mmHg 35%
05:00 +30°C° 0.1 mm 7 mps 752 mmHg 35%
06:00 +33°C° 0.1 mm 7 mps 752 mmHg 33%
07:00 +35°C° 0.1 mm 7 mps 752 mmHg 32%
08:00 +38°C° 0.1 mm 7 mps 753 mmHg 30%
09:00 +38°C° 0 mm 7 mps 753 mmHg 30%
10:00 +39°C° 0 mm 8 mps 753 mmHg 30%
11:00 +40°C° 0 mm 8 mps 753 mmHg 31%
12:00 +39°C° 0 mm 8 mps 753 mmHg 31%
13:00 +39°C° 0 mm 8 mps 753 mmHg 31%
14:00 +39°C° 0 mm 8 mps 753 mmHg 31%
15:00 +38°C° 0 mm 8 mps 753 mmHg 32%
16:00 +37°C° 0 mm 8 mps 752 mmHg 33%
17:00 +37°C° 0 mm 8 mps 752 mmHg 33%
18:00 +34°C° 0 mm 8 mps 753 mmHg 37%
19:00 +32°C° 0 mm 8 mps 753 mmHg 41%
20:00 +29°C° 0 mm 8 mps 753 mmHg 45%
21:00 +29°C° 0 mm 8 mps 753 mmHg 46%
22:00 +28°C° 0 mm 8 mps 753 mmHg 46%
23:00 +28°C° 0 mm 8 mps 754 mmHg 46%
Show more